Wetterdaten: Samstag, 16.01.2016
Datum Zeit Auen-Temp. Temp gefhlt Luftfeuchte Luftdruck Regen Wind Richtung Richtung Taupunkt Windben
16.01.2016 00:00 -3,0 C -4,1 C 81 % 1012,2 hPa 0,0 mm 10,9 km/h (2 Bft) W-SW 247 -5,8 C 11,4 km/h (2 Bft)
16.01.2016 00:05 -3,0 C -4,1 C 81 % 1012,2 hPa 0,0 mm 10,9 km/h (2 Bft) W-SW 247 -5,8 C 12,2 km/h (2 Bft)
16.01.2016 00:10 -3,1 C -4,1 C 81 % 1012,2 hPa 0,0 mm 10,1 km/h (2 Bft) W-NW 292 -5,9 C 7,8 km/h (2 Bft)
16.01.2016 00:15 -3,1 C -4,0 C 82 % 1012,2 hPa 0,0 mm 8,0 km/h (2 Bft) N-NW 337 -5,7 C 6,2 km/h (2 Bft)
16.01.2016 00:20 -3,2 C -4,1 C 82 % 1012,2 hPa 0,0 mm 8,5 km/h (2 Bft) W-SW 247 -5,8 C 10,6 km/h (2 Bft)
16.01.2016 00:25 -3,2 C -4,0 C 83 % 1012,2 hPa 0,0 mm 12,7 km/h (3 Bft) S-SW 202 -5,7 C 38,8 km/h (5 Bft)
16.01.2016 00:30 -3,2 C -4,5 C 84 % 1012,2 hPa 0,0 mm 12,2 km/h (2 Bft) W-SW 247 -5,5 C 10,6 km/h (2 Bft)
16.01.2016 00:35 -3,2 C -4,3 C 85 % 1012,2 hPa 0,0 mm 9,8 km/h (2 Bft) NW 315 -5,4 C 9,3 km/h (2 Bft)
16.01.2016 00:40 -3,2 C -4,3 C 85 % 1012,4 hPa 0,0 mm 10,4 km/h (2 Bft) W-NW 292 -5,4 C 11,1 km/h (2 Bft)
16.01.2016 00:45 -3,2 C -4,2 C 85 % 1012,4 hPa 0,0 mm 9,6 km/h (2 Bft) W-SW 247 -5,4 C 11,9 km/h (2 Bft)
16.01.2016 00:50 -3,2 C -4,2 C 85 % 1012,4 hPa 0,0 mm 9,6 km/h (2 Bft) NW 315 -5,4 C 9,3 km/h (2 Bft)
16.01.2016 00:55 -3,2 C -4,3 C 85 % 1012,4 hPa 0,0 mm 10,4 km/h (2 Bft) W 270 -5,4 C 26,2 km/h (4 Bft)
16.01.2016 01:00 -3,2 C -4,4 C 86 % 1012,4 hPa 0,0 mm 11,4 km/h (2 Bft) W-NW 292 -5,2 C 12,2 km/h (2 Bft)
16.01.2016 01:05 -3,2 C -4,4 C 86 % 1012,4 hPa 0,0 mm 11,9 km/h (2 Bft) W-SW 247 -5,2 C 14,0 km/h (3 Bft)
16.01.2016 01:10 -3,2 C -4,4 C 86 % 1012,4 hPa 0,0 mm 11,9 km/h (2 Bft) SW 225 -5,2 C 13,5 km/h (3 Bft)
16.01.2016 01:15 -3,2 C -4,4 C 86 % 1012,4 hPa 0,0 mm 11,4 km/h (2 Bft) O 90 -5,2 C 10,6 km/h (2 Bft)
16.01.2016 01:20 -3,2 C -4,2 C 86 % 1012,5 hPa 0,0 mm 9,6 km/h (2 Bft) W 270 -5,2 C 7,0 km/h (2 Bft)
16.01.2016 01:25 -3,2 C -4,0 C 86 % 1012,5 hPa 0,0 mm 7,5 km/h (2 Bft) W 270 -5,2 C 10,1 km/h (2 Bft)
16.01.2016 01:30 -3,2 C -4,0 C 86 % 1012,5 hPa 0,0 mm 7,8 km/h (2 Bft) W-SW 247 -5,2 C 9,1 km/h (2 Bft)
16.01.2016 01:35 -3,2 C -4,2 C 86 % 1012,5 hPa 0,0 mm 9,1 km/h (2 Bft) NW 315 -5,2 C 11,1 km/h (2 Bft)
16.01.2016 01:40 -3,2 C -4,2 C 87 % 1012,7 hPa 0,0 mm 9,1 km/h (2 Bft) W-SW 247 -5,0 C 16,3 km/h (3 Bft)
16.01.2016 01:45 -3,2 C -4,2 C 86 % 1012,7 hPa 0,0 mm 9,3 km/h (2 Bft) W 270 -5,2 C 8,0 km/h (2 Bft)
16.01.2016 01:50 -3,2 C -4,1 C 86 % 1012,7 hPa 0,0 mm 8,5 km/h (2 Bft) W-SW 247 -5,2 C 10,9 km/h (2 Bft)
16.01.2016 01:55 -3,2 C -4,0 C 86 % 1012,7 hPa 0,0 mm 7,5 km/h (2 Bft) NW 315 -5,2 C 12,2 km/h (2 Bft)
16.01.2016 02:00 -3,2 C -4,0 C 86 % 1012,8 hPa 0,0 mm 7,8 km/h (2 Bft) W-SW 247 -5,2 C 16,3 km/h (3 Bft)
16.01.2016 02:05 -3,2 C -4,2 C 86 % 1012,8 hPa 0,0 mm 9,6 km/h (2 Bft) W-SW 247 -5,2 C 7,8 km/h (2 Bft)
16.01.2016 02:10 -3,2 C -4,3 C 86 % 1012,8 hPa 0,0 mm 10,6 km/h (2 Bft) NW 315 -5,2 C 10,9 km/h (2 Bft)
16.01.2016 02:15 -3,2 C -4,3 C 86 % 1012,8 hPa 0,0 mm 10,6 km/h (2 Bft) W-NW 292 -5,2 C 17,3 km/h (3 Bft)
16.01.2016 02:20 -3,2 C -4,3 C 86 % 1013,0 hPa 0,0 mm 10,1 km/h (2 Bft) W-NW 292 -5,2 C 10,6 km/h (2 Bft)
16.01.2016 02:25 -3,2 C -4,1 C 87 % 1013,0 hPa 0,0 mm 8,0 km/h (2 Bft) W 270 -5,0 C 9,1 km/h (2 Bft)
16.01.2016 02:30 -3,4 C -4,0 C 80 % 1013,0 hPa 0,0 mm 7,8 km/h (2 Bft) W 270 -6,3 C 20,7 km/h (4 Bft)
16.01.2016 02:35 -3,4 C -4,0 C 80 % 1013,0 hPa 0,0 mm 7,5 km/h (2 Bft) W-SW 247 -6,3 C 7,0 km/h (2 Bft)
16.01.2016 02:40 -3,4 C -3,9 C 80 % 1013,3 hPa 0,0 mm 7,0 km/h (2 Bft) NW 315 -6,3 C 2,8 km/h (1 Bft)
16.01.2016 02:45 -3,4 C -3,8 C 80 % 1013,3 hPa 0,0 mm 4,9 km/h (1 Bft) W 270 -6,3 C 7,8 km/h (2 Bft)
16.01.2016 02:50 -3,4 C -3,7 C 80 % 1013,3 hPa 0,0 mm 4,4 km/h (1 Bft) W-NW 292 -6,3 C 14,5 km/h (3 Bft)
16.01.2016 02:55 -3,4 C -3,9 C 80 % 1013,3 hPa 0,0 mm 6,7 km/h (2 Bft) W 270 -6,3 C 10,4 km/h (2 Bft)
16.01.2016 03:00 -3,4 C -3,9 C 80 % 1013,3 hPa 0,0 mm 6,7 km/h (2 Bft) W-NW 292 -6,3 C 7,3 km/h (2 Bft)
16.01.2016 03:05 -3,4 C -4,0 C 80 % 1013,3 hPa 0,0 mm 7,3 km/h (2 Bft) W-SW 247 -6,3 C 13,5 km/h (3 Bft)
16.01.2016 03:10 -3,4 C -4,1 C 80 % 1013,3 hPa 0,0 mm 8,3 km/h (2 Bft) W 270 -6,3 C 9,1 km/h (2 Bft)
16.01.2016 03:15 -3,4 C -4,0 C 80 % 1013,3 hPa 0,0 mm 7,0 km/h (2 Bft) W-SW 247 -6,3 C 6,5 km/h (2 Bft)
16.01.2016 03:20 -3,4 C -3,9 C 80 % 1013,3 hPa 0,0 mm 6,7 km/h (2 Bft) W-NW 292 -6,3 C 8,5 km/h (2 Bft)
16.01.2016 03:25 -3,4 C -4,0 C 80 % 1013,3 hPa 0,0 mm 7,3 km/h (2 Bft) W 270 -6,3 C 5,7 km/h (1 Bft)
16.01.2016 03:30 -3,4 C -3,9 C 80 % 1013,3 hPa 0,0 mm 7,0 km/h (2 Bft) W-NW 292 -6,3 C 7,8 km/h (2 Bft)
16.01.2016 03:35 -3,4 C -4,0 C 80 % 1013,3 hPa 0,0 mm 7,0 km/h (2 Bft) W 270 -6,3 C 9,6 km/h (2 Bft)
16.01.2016 03:40 -3,4 C -4,0 C 80 % 1013,5 hPa 0,0 mm 7,3 km/h (2 Bft) W-SW 247 -6,3 C 11,4 km/h (2 Bft)
16.01.2016 03:45 -3,4 C -4,0 C 80 % 1013,5 hPa 0,0 mm 7,3 km/h (2 Bft) W-SW 247 -6,3 C 6,5 km/h (2 Bft)
16.01.2016 03:50 -3,4 C -4,0 C 80 % 1013,5 hPa 0,0 mm 7,3 km/h (2 Bft) W-NW 292 -6,3 C 10,9 km/h (2 Bft)
16.01.2016 03:55 -3,4 C -3,9 C 80 % 1013,5 hPa 0,0 mm 7,0 km/h (2 Bft) W-SW 247 -6,3 C 7,5 km/h (2 Bft)
16.01.2016 04:00 -3,4 C -3,9 C 80 % 1013,4 hPa 0,0 mm 7,0 km/h (2 Bft) W 270 -6,3 C 9,8 km/h (2 Bft)
16.01.2016 04:05 -3,4 C -4,0 C 80 % 1013,4 hPa 0,0 mm 7,3 km/h (2 Bft) W-SW 247 -6,3 C 9,8 km/h (2 Bft)
16.01.2016 04:10 -3,4 C -4,0 C 80 % 1013,4 hPa 0,0 mm 7,3 km/h (2 Bft) W-NW 292 -6,3 C 15,0 km/h (3 Bft)
16.01.2016 04:15 -3,4 C -3,9 C 80 % 1013,4 hPa 0,0 mm 7,0 km/h (2 Bft) W-SW 247 -6,3 C 14,5 km/h (3 Bft)
16.01.2016 04:20 -3,4 C -4,0 C 80 % 1013,6 hPa 0,0 mm 7,3 km/h (2 Bft) W 270 -6,3 C 7,8 km/h (2 Bft)
16.01.2016 04:25 -3,4 C -4,1 C 80 % 1013,6 hPa 0,0 mm 8,0 km/h (2 Bft) W 270 -6,3 C 11,4 km/h (2 Bft)
16.01.2016 04:30 -3,4 C -4,0 C 80 % 1013,6 hPa 0,0 mm 7,5 km/h (2 Bft) W-SW 247 -6,3 C 8,0 km/h (2 Bft)
16.01.2016 04:35 -3,4 C -3,9 C 80 % 1013,6 hPa 0,0 mm 7,0 km/h (2 Bft) W-SW 247 -6,3 C 7,3 km/h (2 Bft)
16.01.2016 04:40 -3,2 C -3,9 C 86 % 1013,8 hPa 0,0 mm 6,7 km/h (2 Bft) W-SW 247 -5,2 C 5,7 km/h (1 Bft)
16.01.2016 04:45 -3,2 C -3,9 C 86 % 1013,8 hPa 0,0 mm 6,7 km/h (2 Bft) W 270 -5,2 C 6,5 km/h (2 Bft)
16.01.2016 04:50 -3,2 C -3,9 C 86 % 1013,8 hPa 0,0 mm 6,5 km/h (2 Bft) N-NW 337 -5,2 C 8,0 km/h (2 Bft)
16.01.2016 04:55 -3,2 C -3,7 C 86 % 1013,8 hPa 0,0 mm 5,4 km/h (1 Bft) W 270 -5,2 C 6,2 km/h (2 Bft)
16.01.2016 05:00 -3,2 C -3,6 C 86 % 1014,0 hPa 0,0 mm 4,7 km/h (1 Bft) W-NW 292 -5,2 C 12,9 km/h (3 Bft)
16.01.2016 05:05 -3,2 C -3,7 C 81 % 1014,0 hPa 0,0 mm 5,4 km/h (1 Bft) W 270 -6,0 C 11,1 km/h (2 Bft)
16.01.2016 05:10 -3,2 C -3,8 C 81 % 1014,0 hPa 0,0 mm 6,7 km/h (2 Bft) NW 315 -6,0 C 4,1 km/h (1 Bft)
16.01.2016 05:15 -3,2 C -3,8 C 81 % 1014,0 hPa 0,0 mm 7,0 km/h (2 Bft) W-NW 292 -6,0 C 12,4 km/h (3 Bft)
16.01.2016 05:20 -3,2 C -3,7 C 81 % 1014,1 hPa 0,0 mm 6,0 km/h (2 Bft) W-NW 292 -6,0 C 6,2 km/h (2 Bft)
16.01.2016 05:25 -3,2 C -3,7 C 81 % 1014,1 hPa 0,0 mm 6,0 km/h (2 Bft) SW 225 -6,0 C 8,8 km/h (2 Bft)
16.01.2016 05:30 -3,2 C -3,7 C 81 % 1014,1 hPa 0,0 mm 6,2 km/h (2 Bft) SW 225 -6,0 C 8,8 km/h (2 Bft)
16.01.2016 05:35 -3,2 C -3,7 C 81 % 1014,1 hPa 0,0 mm 5,7 km/h (1 Bft) W 270 -6,0 C 3,9 km/h (1 Bft)
16.01.2016 05:36 -3,2 C -3,6 C 81 % 1014,3 hPa 0,0 mm 5,2 km/h (1 Bft) W-SW 247 -6,0 C 7,0 km/h (2 Bft)
16.01.2016 05:39 -3,2 C -3,6 C 81 % 1014,3 hPa 0,0 mm 5,2 km/h (1 Bft) W-SW 247 -6,0 C 7,0 km/h (2 Bft)
16.01.2016 05:40 -3,2 C -3,6 C 81 % 1014,3 hPa 0,0 mm 5,2 km/h (1 Bft) W-SW 247 -6,0 C 7,0 km/h (2 Bft)
16.01.2016 05:45 -3,2 C -3,5 C 81 % 1014,3 hPa 0,0 mm 4,7 km/h (1 Bft) W 270 -6,0 C 6,0 km/h (2 Bft)
16.01.2016 05:50 -3,2 C -3,5 C 81 % 1014,3 hPa 0,0 mm 4,7 km/h (1 Bft) W 270 -6,0 C 6,2 km/h (2 Bft)
16.01.2016 05:55 -3,2 C -3,7 C 81 % 1014,3 hPa 0,0 mm 6,2 km/h (2 Bft) W-SW 247 -6,0 C 8,8 km/h (2 Bft)
16.01.2016 06:00 -3,1 C -3,8 C 86 % 1014,5 hPa 0,0 mm 6,7 km/h (2 Bft) W-SW 247 -5,1 C 5,2 km/h (1 Bft)
16.01.2016 06:05 -3,1 C -3,7 C 86 % 1014,5 hPa 0,0 mm 6,2 km/h (2 Bft) W 270 -5,1 C 6,5 km/h (2 Bft)
16.01.2016 06:10 -3,1 C -3,6 C 81 % 1014,5 hPa 0,0 mm 5,4 km/h (1 Bft) W 270 -5,9 C 4,7 km/h (1 Bft)
16.01.2016 06:15 -3,1 C -3,4 C 81 % 1014,5 hPa 0,0 mm 4,7 km/h (1 Bft) W 270 -5,9 C 5,7 km/h (1 Bft)
16.01.2016 06:20 -3,1 C -3,5 C 81 % 1014,7 hPa 0,0 mm 5,2 km/h (1 Bft) W-NW 292 -5,9 C 9,3 km/h (2 Bft)
16.01.2016 06:25 -3,1 C -3,4 C 81 % 1014,7 hPa 0,0 mm 4,9 km/h (1 Bft) W-SW 247 -5,9 C 6,7 km/h (2 Bft)
16.01.2016 06:30 -3,1 C -3,3 C 81 % 1014,7 hPa 0,0 mm 4,1 km/h (1 Bft) W-NW 292 -5,9 C 3,1 km/h (1 Bft)
16.01.2016 06:35 -3,1 C -3,3 C 81 % 1014,7 hPa 0,0 mm 3,9 km/h (1 Bft) W-SW 247 -5,9 C 10,4 km/h (2 Bft)
16.01.2016 06:40 -3,1 C -3,4 C 81 % 1014,8 hPa 0,0 mm 4,7 km/h (1 Bft) S-SO 157 -5,9 C 10,9 km/h (2 Bft)
16.01.2016 06:45 -3,1 C -3,5 C 81 % 1014,8 hPa 0,0 mm 5,4 km/h (1 Bft) W 270 -5,9 C 10,9 km/h (2 Bft)
16.01.2016 06:50 -3,0 C -3,5 C 81 % 1014,8 hPa 0,0 mm 5,4 km/h (1 Bft) W-SW 247 -5,8 C 5,4 km/h (1 Bft)
16.01.2016 06:55 -3,0 C -3,3 C 82 % 1014,8 hPa 0,0 mm 4,4 km/h (1 Bft) W-SW 247 -5,6 C 6,2 km/h (2 Bft)
16.01.2016 07:00 -3,0 C -3,1 C 82 % 1015,0 hPa 0,0 mm 3,6 km/h (1 Bft) W-NW 292 -5,6 C 7,3 km/h (2 Bft)
16.01.2016 07:05 -3,0 C -3,2 C 82 % 1015,0 hPa 0,0 mm 3,9 km/h (1 Bft) W-SW 247 -5,6 C 2,6 km/h (1 Bft)
16.01.2016 07:10 -3,0 C -3,1 C 82 % 1015,0 hPa 0,0 mm 3,6 km/h (1 Bft) SW 225 -5,6 C 5,4 km/h (1 Bft)
16.01.2016 07:15 -3,0 C -3,1 C 82 % 1015,0 hPa 0,0 mm 3,4 km/h (1 Bft) W-SW 247 -5,6 C 4,9 km/h (1 Bft)
16.01.2016 07:20 -3,0 C -3,1 C 82 % 1015,2 hPa 0,0 mm 3,6 km/h (1 Bft) W-SW 247 -5,6 C 7,3 km/h (2 Bft)
16.01.2016 07:25 -3,0 C -3,1 C 82 % 1015,2 hPa 0,0 mm 2,6 km/h (1 Bft) W 270 -5,6 C 0,0 km/h (0 Bft)
16.01.2016 07:30 -3,0 C -3,1 C 82 % 1015,2 hPa 0,0 mm 1,0 km/h (0 Bft) W 270 -5,6 C 0,0 km/h (0 Bft)
16.01.2016 07:35 -3,0 C -3,2 C 86 % 1015,2 hPa 0,0 mm 0,3 km/h (0 Bft) W 270 -5,0 C 0,0 km/h (0 Bft)
16.01.2016 07:40 -3,0 C -3,2 C 86 % 1015,3 hPa 0,0 mm 0,3 km/h (0 Bft) W 270 -5,0 C 0,0 km/h (0 Bft)
16.01.2016 07:45 -3,0 C -3,2 C 86 % 1015,3 hPa 0,0 mm 0,0 km/h (0 Bft) W-NW 292 -5,0 C 0,0 km/h (0 Bft)
16.01.2016 07:50 -3,0 C -3,2 C 86 % 1015,3 hPa 0,0 mm 1,0 km/h (0 Bft) W-NW 292 -5,0 C 4,9 km/h (1 Bft)
16.01.2016 07:55 -3,0 C -3,2 C 86 % 1015,3 hPa 0,0 mm 2,8 km/h (1 Bft) N-NO 22 -5,0 C 7,3 km/h (2 Bft)
16.01.2016 08:00 -3,0 C -3,3 C 86 % 1015,7 hPa 0,0 mm 3,9 km/h (1 Bft) W-NW 292 -5,0 C 9,1 km/h (2 Bft)
16.01.2016 08:05 -3,1 C -3,6 C 82 % 1015,7 hPa 0,0 mm 5,4 km/h (1 Bft) NW 315 -5,7 C 6,7 km/h (2 Bft)
16.01.2016 08:10 -3,1 C -3,4 C 82 % 1015,7 hPa 0,0 mm 4,1 km/h (1 Bft) NW 315 -5,7 C 0,0 km/h (0 Bft)
16.01.2016 08:15 -3,1 C -3,2 C 82 % 1015,7 hPa 0,0 mm 2,1 km/h (1 Bft) W-NW 292 -5,7 C 3,4 km/h (1 Bft)
16.01.2016 08:20 -3,1 C -3,1 C 82 % 1016,0 hPa 0,0 mm 1,6 km/h (1 Bft) W 270 -5,7 C 0,0 km/h (0 Bft)
16.01.2016 08:25 -3,0 C -3,1 C 82 % 1016,0 hPa 0,0 mm 2,3 km/h (1 Bft) NW 315 -5,6 C 5,2 km/h (1 Bft)
16.01.2016 08:30 -3,0 C -3,1 C 82 % 1016,0 hPa 0,0 mm 2,8 km/h (1 Bft) NW 315 -5,6 C 0,0 km/h (0 Bft)
16.01.2016 08:35 -3,0 C -3,0 C 82 % 1016,0 hPa 0,0 mm 3,6 km/h (1 Bft) NW 315 -5,6 C 7,8 km/h (2 Bft)
16.01.2016 08:40 -3,0 C -3,0 C 82 % 1016,0 hPa 0,0 mm 3,9 km/h (1 Bft) W-NW 292 -5,6 C 12,7 km/h (3 Bft)
16.01.2016 08:45 -2,9 C -3,3 C 83 % 1016,0 hPa 0,0 mm 5,7 km/h (1 Bft) NW 315 -5,4 C 5,4 km/h (1 Bft)
16.01.2016 08:50 -2,9 C -3,4 C 83 % 1016,0 hPa 0,0 mm 6,5 km/h (2 Bft) NW 315 -5,4 C 11,9 km/h (2 Bft)
16.01.2016 08:55 -2,9 C -3,6 C 83 % 1016,0 hPa 0,0 mm 7,8 km/h (2 Bft) NW 315 -5,4 C 8,3 km/h (2 Bft)
16.01.2016 09:00 -2,9 C -3,6 C 83 % 1016,5 hPa 0,0 mm 7,5 km/h (2 Bft) W-NW 292 -5,4 C 7,3 km/h (2 Bft)
16.01.2016 09:05 -3,0 C -3,3 C 83 % 1016,5 hPa 0,0 mm 5,4 km/h (1 Bft) N-NW 337 -5,5 C 7,0 km/h (2 Bft)
16.01.2016 09:10 -3,0 C -3,3 C 83 % 1016,5 hPa 0,0 mm 5,2 km/h (1 Bft) W 270 -5,5 C 8,8 km/h (2 Bft)
16.01.2016 09:15 -3,0 C -3,5 C 83 % 1016,5 hPa 0,0 mm 7,0 km/h (2 Bft) NW 315 -5,5 C 6,7 km/h (2 Bft)
16.01.2016 09:20 -3,0 C -3,5 C 83 % 1017,3 hPa 0,0 mm 7,5 km/h (2 Bft) SW 225 -5,5 C 13,5 km/h (3 Bft)
16.01.2016 09:25 -3,0 C -3,3 C 83 % 1017,3 hPa 0,0 mm 6,5 km/h (2 Bft) NW 315 -5,5 C 5,7 km/h (1 Bft)
16.01.2016 09:30 -3,0 C -3,4 C 83 % 1017,3 hPa 0,0 mm 7,0 km/h (2 Bft) N 360 -5,5 C 9,8 km/h (2 Bft)
16.01.2016 09:35 -3,0 C -3,3 C 82 % 1017,3 hPa 0,0 mm 7,0 km/h (2 Bft) N-NO 22 -5,6 C 13,2 km/h (3 Bft)
16.01.2016 09:40 -3,0 C -3,2 C 82 % 1017,7 hPa 0,0 mm 6,7 km/h (2 Bft) NW 315 -5,6 C 6,0 km/h (2 Bft)
16.01.2016 09:45 -3,0 C -2,8 C 82 % 1017,7 hPa 0,0 mm 5,2 km/h (1 Bft) NW 315 -5,6 C 0,0 km/h (0 Bft)
16.01.2016 09:50 -2,9 C -2,6 C 82 % 1017,7 hPa 0,0 mm 4,4 km/h (1 Bft) NW 315 -5,5 C 4,9 km/h (1 Bft)
16.01.2016 09:55 -2,9 C -2,2 C 82 % 1017,7 hPa 0,0 mm 3,1 km/h (1 Bft) SW 225 -5,5 C 0,0 km/h (0 Bft)
16.01.2016 10:00 -2,9 C -2,2 C 82 % 1018,0 hPa 0,0 mm 3,4 km/h (1 Bft) W-NW 292 -5,5 C 7,8 km/h (2 Bft)
16.01.2016 10:05 -2,7 C -2,3 C 82 % 1018,0 hPa 0,0 mm 4,1 km/h (1 Bft) W-NW 292 -5,3 C 7,0 km/h (2 Bft)
16.01.2016 10:10 -2,7 C -2,5 C 82 % 1018,0 hPa 0,0 mm 4,9 km/h (1 Bft) W-NW 292 -5,3 C 3,6 km/h (1 Bft)
16.01.2016 10:15 -2,9 C -2,6 C 82 % 1018,0 hPa 0,0 mm 4,7 km/h (1 Bft) W 270 -5,5 C 4,1 km/h (1 Bft)
16.01.2016 10:20 -2,9 C -2,5 C 82 % 1018,0 hPa 0,0 mm 4,1 km/h (1 Bft) W-NW 292 -5,5 C 9,6 km/h (2 Bft)
16.01.2016 10:25 -2,9 C -2,8 C 82 % 1018,0 hPa 0,0 mm 5,7 km/h (1 Bft) W 270 -5,5 C 12,4 km/h (3 Bft)
16.01.2016 10:30 -2,9 C -3,0 C 82 % 1018,0 hPa 0,0 mm 7,0 km/h (2 Bft) NW 315 -5,5 C 4,9 km/h (1 Bft)
16.01.2016 10:35 -2,7 C -2,7 C 82 % 1018,0 hPa 0,0 mm 7,8 km/h (2 Bft) W 270 -5,3 C 11,4 km/h (2 Bft)
16.01.2016 10:40 -2,7 C -2,4 C 82 % 1018,1 hPa 0,0 mm 7,3 km/h (2 Bft) NW 315 -5,3 C 11,1 km/h (2 Bft)
16.01.2016 10:45 -2,6 C -2,0 C 82 % 1018,1 hPa 0,0 mm 6,5 km/h (2 Bft) W 270 -5,2 C 10,4 km/h (2 Bft)
16.01.2016 10:50 -2,5 C -2,1 C 82 % 1018,1 hPa 0,0 mm 7,0 km/h (2 Bft) W 270 -5,1 C 10,4 km/h (2 Bft)
16.01.2016 10:55 -2,6 C -2,1 C 82 % 1018,1 hPa 0,0 mm 6,7 km/h (2 Bft) W-NW 292 -5,2 C 4,1 km/h (1 Bft)
16.01.2016 11:00 -2,6 C -2,3 C 82 % 1018,4 hPa 0,0 mm 7,5 km/h (2 Bft) W-SW 247 -5,2 C 10,4 km/h (2 Bft)
16.01.2016 11:05 -2,5 C -2,0 C 82 % 1018,4 hPa 0,0 mm 6,7 km/h (2 Bft) SW 225 -5,1 C 5,2 km/h (1 Bft)
16.01.2016 11:10 -2,5 C -1,8 C 81 % 1018,4 hPa 0,0 mm 5,7 km/h (1 Bft) W-NW 292 -5,3 C 12,2 km/h (2 Bft)
16.01.2016 11:15 -2,5 C -1,6 C 81 % 1018,4 hPa 0,0 mm 7,3 km/h (2 Bft) NW 315 -5,3 C 10,6 km/h (2 Bft)
16.01.2016 11:20 -2,5 C -1,7 C 81 % 1018,4 hPa 0,0 mm 8,3 km/h (2 Bft) W-NW 292 -5,3 C 12,9 km/h (3 Bft)
16.01.2016 11:25 -2,4 C -1,6 C 81 % 1018,4 hPa 0,0 mm 7,8 km/h (2 Bft) W 270 -5,2 C 8,0 km/h (2 Bft)
16.01.2016 11:30 -2,4 C -1,7 C 81 % 1018,4 hPa 0,0 mm 7,5 km/h (2 Bft) W-NW 292 -5,2 C 10,9 km/h (2 Bft)
16.01.2016 11:35 -2,5 C -1,8 C 81 % 1018,4 hPa 0,0 mm 7,8 km/h (2 Bft) W 270 -5,3 C 4,9 km/h (1 Bft)
16.01.2016 11:36 -2,5 C -1,9 C 81 % 1018,3 hPa 0,0 mm 8,0 km/h (2 Bft) NW 315 -5,3 C 7,3 km/h (2 Bft)
16.01.2016 11:39 -2,5 C -1,9 C 81 % 1018,3 hPa 0,0 mm 8,0 km/h (2 Bft) NW 315 -5,3 C 7,3 km/h (2 Bft)
16.01.2016 11:45 -2,5 C -1,7 C 80 % 1018,3 hPa 0,0 mm 7,3 km/h (2 Bft) W 270 -5,5 C 5,7 km/h (1 Bft)
16.01.2016 11:50 -2,5 C -1,8 C 80 % 1018,3 hPa 0,0 mm 7,0 km/h (2 Bft) W-SW 247 -5,5 C 11,1 km/h (2 Bft)
16.01.2016 11:55 -2,6 C -1,8 C 80 % 1018,3 hPa 0,0 mm 7,0 km/h (2 Bft) W 270 -5,6 C 5,4 km/h (1 Bft)
16.01.2016 12:00 -2,6 C -2,0 C 80 % 1018,2 hPa 0,0 mm 7,3 km/h (2 Bft) W-SW 247 -5,6 C 10,4 km/h (2 Bft)
16.01.2016 12:05 -2,7 C -2,1 C 80 % 1018,2 hPa 0,0 mm 6,7 km/h (2 Bft) W 270 -5,7 C 5,4 km/h (1 Bft)
16.01.2016 12:10 -2,7 C -2,1 C 80 % 1018,2 hPa 0,0 mm 5,7 km/h (1 Bft) S-SW 202 -5,7 C 5,7 km/h (1 Bft)
16.01.2016 12:15 -2,7 C -2,2 C 80 % 1018,2 hPa 0,0 mm 6,0 km/h (2 Bft) N-NO 22 -5,7 C 9,8 km/h (2 Bft)
16.01.2016 12:20 -2,7 C -2,0 C 80 % 1018,3 hPa 0,0 mm 5,4 km/h (1 Bft) SW 225 -5,7 C 6,0 km/h (2 Bft)
16.01.2016 12:25 -2,6 C -1,7 C 80 % 1018,3 hPa 0,0 mm 6,5 km/h (2 Bft) NW 315 -5,6 C 5,7 km/h (1 Bft)
16.01.2016 12:30 -2,5 C -1,5 C 80 % 1018,3 hPa 0,0 mm 6,7 km/h (2 Bft) W-NW 292 -5,5 C 6,7 km/h (2 Bft)
16.01.2016 12:35 -2,5 C -1,4 C 80 % 1018,3 hPa 0,0 mm 6,5 km/h (2 Bft) W-SW 247 -5,5 C 10,1 km/h (2 Bft)
16.01.2016 12:40 -2,5 C -1,3 C 80 % 1018,0 hPa 0,0 mm 6,2 km/h (2 Bft) NW 315 -5,5 C 5,4 km/h (1 Bft)
16.01.2016 12:45 -2,5 C -1,5 C 80 % 1018,0 hPa 0,0 mm 6,5 km/h (2 Bft) W-SW 247 -5,5 C 4,7 km/h (1 Bft)
16.01.2016 12:50 -2,5 C -1,7 C 80 % 1018,0 hPa 0,0 mm 6,7 km/h (2 Bft) W-SW 247 -5,5 C 9,3 km/h (2 Bft)
16.01.2016 12:55 -2,6 C -2,0 C 79 % 1018,0 hPa 0,0 mm 6,7 km/h (2 Bft) W 270 -5,7 C 7,0 km/h (2 Bft)
16.01.2016 13:00 -2,6 C -1,9 C 79 % 1018,1 hPa 0,0 mm 5,7 km/h (1 Bft) W-NW 292 -5,7 C 8,3 km/h (2 Bft)
16.01.2016 13:05 -2,7 C -2,0 C 79 % 1018,1 hPa 0,0 mm 5,2 km/h (1 Bft) W 270 -5,8 C 4,7 km/h (1 Bft)
16.01.2016 13:10 -2,7 C -1,7 C 79 % 1018,1 hPa 0,0 mm 4,9 km/h (1 Bft) NW 315 -5,8 C 4,9 km/h (1 Bft)
16.01.2016 13:15 -2,6 C -1,7 C 79 % 1018,1 hPa 0,0 mm 5,7 km/h (1 Bft) W-SW 247 -5,7 C 8,8 km/h (2 Bft)
16.01.2016 13:20 -2,6 C -1,5 C 79 % 1018,0 hPa 0,0 mm 6,2 km/h (2 Bft) W-SW 247 -5,7 C 8,8 km/h (2 Bft)
16.01.2016 13:25 -2,5 C -1,2 C 79 % 1018,0 hPa 0,0 mm 6,2 km/h (2 Bft) W-SW 247 -5,6 C 8,8 km/h (2 Bft)
16.01.2016 13:30 -2,5 C -1,1 C 79 % 1018,0 hPa 0,0 mm 5,4 km/h (1 Bft) W-NW 292 -5,6 C 7,0 km/h (2 Bft)
16.01.2016 13:35 -2,5 C -1,2 C 79 % 1018,0 hPa 0,0 mm 6,0 km/h (2 Bft) W 270 -5,6 C 0,0 km/h (0 Bft)
16.01.2016 13:40 -2,4 C -1,1 C 79 % 1017,9 hPa 0,0 mm 5,7 km/h (1 Bft) NW 315 -5,5 C 4,1 km/h (1 Bft)
16.01.2016 13:45 -2,5 C -1,1 C 79 % 1017,9 hPa 0,0 mm 5,2 km/h (1 Bft) W-NW 292 -5,6 C 15,3 km/h (3 Bft)
16.01.2016 13:50 -2,5 C -1,3 C 79 % 1017,9 hPa 0,0 mm 6,2 km/h (2 Bft) W 270 -5,6 C 6,5 km/h (2 Bft)
16.01.2016 13:55 -2,5 C -1,4 C 79 % 1017,9 hPa 0,0 mm 6,7 km/h (2 Bft) S-SW 202 -5,6 C 14,5 km/h (3 Bft)
16.01.2016 14:00 -2,5 C -1,6 C 79 % 1018,2 hPa 0,0 mm 6,7 km/h (2 Bft) NW 315 -5,6 C 14,5 km/h (3 Bft)
16.01.2016 14:05 -2,6 C -1,9 C 79 % 1018,2 hPa 0,0 mm 8,3 km/h (2 Bft) W 270 -5,7 C 8,3 km/h (2 Bft)
16.01.2016 14:10 -2,6 C -1,9 C 79 % 1018,2 hPa 0,0 mm 8,0 km/h (2 Bft) W 270 -5,7 C 7,8 km/h (2 Bft)
16.01.2016 14:15 -2,6 C -2,0 C 79 % 1018,2 hPa 0,0 mm 6,2 km/h (2 Bft) NW 315 -5,7 C 6,0 km/h (2 Bft)
16.01.2016 14:20 -2,6 C -2,1 C 79 % 1018,2 hPa 0,0 mm 5,7 km/h (1 Bft) W-SW 247 -5,7 C 16,1 km/h (3 Bft)
16.01.2016 14:25 -2,7 C -2,5 C 79 % 1018,2 hPa 0,0 mm 6,2 km/h (2 Bft) W-SW 247 -5,8 C 3,1 km/h (1 Bft)
16.01.2016 14:30 -2,7 C -2,7 C 79 % 1018,2 hPa 0,0 mm 6,2 km/h (2 Bft) W-NW 292 -5,8 C 5,4 km/h (1 Bft)
16.01.2016 14:35 -2,9 C -2,9 C 79 % 1018,2 hPa 0,0 mm 6,2 km/h (2 Bft) W 270 -6,0 C 11,4 km/h (2 Bft)
16.01.2016 14:40 -2,9 C -3,2 C 79 % 1018,4 hPa 0,0 mm 7,5 km/h (2 Bft) W 270 -6,0 C 6,7 km/h (2 Bft)
16.01.2016 14:45 -2,9 C -3,1 C 79 % 1018,4 hPa 0,0 mm 7,5 km/h (2 Bft) SW 225 -6,0 C 6,7 km/h (2 Bft)
16.01.2016 14:50 -2,9 C -2,7 C 79 % 1018,4 hPa 0,0 mm 7,0 km/h (2 Bft) SO 135 -6,0 C 7,8 km/h (2 Bft)
16.01.2016 14:55 -2,7 C -2,7 C 79 % 1018,4 hPa 0,0 mm 7,5 km/h (2 Bft) W 270 -5,8 C 6,7 km/h (2 Bft)
16.01.2016 15:00 -2,7 C -2,5 C 79 % 1018,4 hPa 0,0 mm 7,0 km/h (2 Bft) W 270 -5,8 C 9,1 km/h (2 Bft)
16.01.2016 15:05 -2,6 C -2,4 C 79 % 1018,4 hPa 0,0 mm 6,7 km/h (2 Bft) W-SW 247 -5,7 C 9,6 km/h (2 Bft)
16.01.2016 15:10 -2,7 C -2,6 C 79 % 1018,4 hPa 0,0 mm 7,3 km/h (2 Bft) SW 225 -5,8 C 13,5 km/h (3 Bft)
16.01.2016 15:15 -2,9 C -2,9 C 79 % 1018,4 hPa 0,0 mm 7,0 km/h (2 Bft) W-SW 247 -6,0 C 8,3 km/h (2 Bft)
16.01.2016 15:20 -2,9 C -3,1 C 79 % 1018,3 hPa 0,0 mm 7,5 km/h (2 Bft) W-SW 247 -6,0 C 9,8 km/h (2 Bft)
16.01.2016 15:25 -2,9 C -3,0 C 79 % 1018,3 hPa 0,0 mm 7,0 km/h (2 Bft) SW 225 -6,0 C 8,5 km/h (2 Bft)
16.01.2016 15:30 -2,9 C -2,9 C 79 % 1018,3 hPa 0,0 mm 6,5 km/h (2 Bft) W-SW 247 -6,0 C 5,7 km/h (1 Bft)
16.01.2016 15:35 -2,9 C -2,8 C 79 % 1018,3 hPa 0,0 mm 6,2 km/h (2 Bft) W-SW 247 -6,0 C 6,2 km/h (2 Bft)
16.01.2016 15:40 -3,0 C -2,8 C 79 % 1018,3 hPa 0,0 mm 5,7 km/h (1 Bft) W 270 -6,1 C 3,6 km/h (1 Bft)
16.01.2016 15:45 -3,0 C -2,7 C 78 % 1018,3 hPa 0,0 mm 5,2 km/h (1 Bft) W-SW 247 -6,3 C 6,5 km/h (2 Bft)
16.01.2016 15:50 -3,0 C -2,6 C 78 % 1018,3 hPa 0,0 mm 4,7 km/h (1 Bft) W-NW 292 -6,3 C 5,2 km/h (1 Bft)
16.01.2016 15:55 -3,0 C -2,8 C 78 % 1018,3 hPa 0,0 mm 4,9 km/h (1 Bft) W 270 -6,3 C 8,3 km/h (2 Bft)
16.01.2016 16:00 -3,0 C -2,8 C 78 % 1018,2 hPa 0,0 mm 4,9 km/h (1 Bft) W 270 -6,3 C 5,7 km/h (1 Bft)
16.01.2016 16:05 -3,1 C -3,1 C 78 % 1018,2 hPa 0,0 mm 5,2 km/h (1 Bft) SW 225 -6,4 C 7,3 km/h (2 Bft)
16.01.2016 16:10 -3,1 C -3,1 C 78 % 1018,2 hPa 0,0 mm 5,4 km/h (1 Bft) SW 225 -6,4 C 5,7 km/h (1 Bft)
16.01.2016 16:15 -3,1 C -3,1 C 78 % 1018,2 hPa 0,0 mm 4,9 km/h (1 Bft) W-SW 247 -6,4 C 7,0 km/h (2 Bft)
16.01.2016 16:20 -3,1 C -3,2 C 78 % 1018,2 hPa 0,0 mm 4,7 km/h (1 Bft) W-SW 247 -6,4 C 4,4 km/h (1 Bft)
16.01.2016 16:25 -3,1 C -3,4 C 78 % 1018,2 hPa 0,0 mm 4,9 km/h (1 Bft) W-SW 247 -6,4 C 0,0 km/h (0 Bft)
16.01.2016 16:30 -3,2 C -3,5 C 78 % 1018,2 hPa 0,0 mm 4,9 km/h (1 Bft) W-SW 247 -6,5 C 9,1 km/h (2 Bft)
16.01.2016 16:35 -3,2 C -3,7 C 78 % 1018,2 hPa 0,0 mm 5,7 km/h (1 Bft) W-SW 247 -6,5 C 8,8 km/h (2 Bft)
16.01.2016 16:40 -3,4 C -4,0 C 78 % 1018,0 hPa 0,0 mm 5,7 km/h (1 Bft) W-SW 247 -6,7 C 11,4 km/h (2 Bft)
16.01.2016 16:45 -3,6 C -4,0 C 78 % 1018,0 hPa 0,0 mm 4,7 km/h (1 Bft) W-SW 247 -6,9 C 3,4 km/h (1 Bft)
16.01.2016 16:50 -3,6 C -4,1 C 78 % 1018,0 hPa 0,0 mm 4,7 km/h (1 Bft) W-SW 247 -6,9 C 3,4 km/h (1 Bft)
16.01.2016 16:55 -3,6 C -3,8 C 78 % 1018,0 hPa 0,0 mm 3,1 km/h (1 Bft) NW 315 -6,9 C 0,0 km/h (0 Bft)
16.01.2016 17:00 -3,6 C -3,8 C 78 % 1017,9 hPa 0,0 mm 2,8 km/h (1 Bft) W-SW 247 -6,9 C 5,7 km/h (1 Bft)
16.01.2016 17:05 -3,6 C -4,0 C 78 % 1017,9 hPa 0,0 mm 4,1 km/h (1 Bft) W-SW 247 -6,9 C 3,9 km/h (1 Bft)
16.01.2016 17:10 -3,6 C -4,1 C 78 % 1017,9 hPa 0,0 mm 5,2 km/h (1 Bft) SW 225 -6,9 C 8,3 km/h (2 Bft)
16.01.2016 17:15 -3,6 C -3,9 C 78 % 1017,9 hPa 0,0 mm 3,9 km/h (1 Bft) W-NW 292 -6,9 C 2,6 km/h (1 Bft)
16.01.2016 17:20 -3,5 C -3,7 C 79 % 1017,7 hPa 0,0 mm 3,4 km/h (1 Bft) W 270 -6,6 C 5,2 km/h (1 Bft)
16.01.2016 17:25 -3,5 C -3,7 C 79 % 1017,7 hPa 0,0 mm 2,3 km/h (1 Bft) W-SW 247 -6,6 C 0,0 km/h (0 Bft)
16.01.2016 17:30 -3,5 C -3,7 C 79 % 1017,7 hPa 0,0 mm 2,3 km/h (1 Bft) W 270 -6,6 C 3,6 km/h (1 Bft)
16.01.2016 17:35 -3,4 C -3,6 C 79 % 1017,7 hPa 0,0 mm 2,8 km/h (1 Bft) W 270 -6,5 C 3,4 km/h (1 Bft)
16.01.2016 17:36 -3,4 C -3,6 C 79 % 1017,7 hPa 0,0 mm 3,4 km/h (1 Bft) W-SW 247 -6,5 C 5,7 km/h (1 Bft)
16.01.2016 17:41 -3,4 C -3,6 C 79 % 1017,7 hPa 0,0 mm 3,4 km/h (1 Bft) W-SW 247 -6,5 C 5,7 km/h (1 Bft)
16.01.2016 17:45 -3,4 C -3,7 C 79 % 1017,7 hPa 0,0 mm 4,4 km/h (1 Bft) W-SW 247 -6,5 C 6,5 km/h (2 Bft)
16.01.2016 17:50 -3,4 C -3,8 C 79 % 1017,7 hPa 0,0 mm 4,7 km/h (1 Bft) W-SW 247 -6,5 C 4,4 km/h (1 Bft)
16.01.2016 17:55 -3,4 C -4,0 C 80 % 1017,7 hPa 0,0 mm 6,2 km/h (2 Bft) SW 225 -6,3 C 7,8 km/h (2 Bft)
16.01.2016 18:00 -3,4 C -4,2 C 80 % 1017,7 hPa 0,0 mm 8,0 km/h (2 Bft) W-SW 247 -6,3 C 22,8 km/h (4 Bft)
16.01.2016 18:05 -3,5 C -4,3 C 79 % 1017,7 hPa 0,0 mm 9,1 km/h (2 Bft) N-NW 337 -6,6 C 8,5 km/h (2 Bft)
16.01.2016 18:10 -3,5 C -4,4 C 79 % 1017,7 hPa 0,0 mm 9,6 km/h (2 Bft) NW 315 -6,6 C 12,7 km/h (3 Bft)
16.01.2016 18:15 -3,5 C -4,4 C 79 % 1017,7 hPa 0,0 mm 9,1 km/h (2 Bft) NW 315 -6,6 C 11,9 km/h (2 Bft)
16.01.2016 18:20 -3,5 C -4,4 C 79 % 1017,7 hPa 0,0 mm 9,1 km/h (2 Bft) W 270 -6,6 C 19,2 km/h (3 Bft)
16.01.2016 18:25 -3,5 C -4,3 C 80 % 1017,7 hPa 0,0 mm 8,0 km/h (2 Bft) W-SW 247 -6,4 C 6,7 km/h (2 Bft)
16.01.2016 18:30 -3,5 C -4,3 C 80 % 1017,7 hPa 0,0 mm 8,3 km/h (2 Bft) W-SW 247 -6,4 C 13,2 km/h (3 Bft)
16.01.2016 18:35 -3,5 C -4,3 C 80 % 1017,7 hPa 0,0 mm 8,0 km/h (2 Bft) SW 225 -6,4 C 8,3 km/h (2 Bft)
16.01.2016 18:40 -3,6 C -4,3 C 80 % 1017,5 hPa 0,0 mm 7,5 km/h (2 Bft) W-SW 247 -6,5 C 12,7 km/h (3 Bft)
16.01.2016 18:45 -3,5 C -4,4 C 80 % 1017,5 hPa 0,0 mm 9,1 km/h (2 Bft) NW 315 -6,4 C 18,9 km/h (3 Bft)
16.01.2016 18:50 -3,5 C -4,5 C 81 % 1017,5 hPa 0,0 mm 10,4 km/h (2 Bft) W 270 -6,3 C 11,1 km/h (2 Bft)
16.01.2016 18:55 -3,5 C -4,4 C 81 % 1017,5 hPa 0,0 mm 9,6 km/h (2 Bft) W 270 -6,3 C 8,0 km/h (2 Bft)
16.01.2016 19:00 -3,5 C -4,3 C 81 % 1017,3 hPa 0,0 mm 9,1 km/h (2 Bft) W-NW 292 -6,3 C 12,7 km/h (3 Bft)
16.01.2016 19:05 -3,5 C -4,3 C 81 % 1017,3 hPa 0,0 mm 8,8 km/h (2 Bft) W 270 -6,3 C 14,8 km/h (3 Bft)
16.01.2016 19:10 -3,5 C -4,4 C 81 % 1017,3 hPa 0,0 mm 10,1 km/h (2 Bft) W 270 -6,3 C 8,0 km/h (2 Bft)
16.01.2016 19:15 -3,5 C -4,3 C 81 % 1017,3 hPa 0,0 mm 9,6 km/h (2 Bft) W-SW 247 -6,3 C 15,0 km/h (3 Bft)
16.01.2016 19:20 -3,5 C -4,3 C 81 % 1017,5 hPa 0,0 mm 9,1 km/h (2 Bft) SW 225 -6,3 C 8,0 km/h (2 Bft)
16.01.2016 19:25 -3,5 C -4,2 C 81 % 1017,5 hPa 0,0 mm 8,3 km/h (2 Bft) SW 225 -6,3 C 5,7 km/h (1 Bft)
16.01.2016 19:30 -3,5 C -4,1 C 82 % 1017,5 hPa 0,0 mm 7,5 km/h (2 Bft) W 270 -6,1 C 8,0 km/h (2 Bft)
16.01.2016 19:35 -3,4 C -4,1 C 82 % 1017,5 hPa 0,0 mm 8,5 km/h (2 Bft) W-SW 247 -6,0 C 9,6 km/h (2 Bft)
16.01.2016 19:40 -3,4 C -4,1 C 82 % 1017,3 hPa 0,0 mm 8,5 km/h (2 Bft) W 270 -6,0 C 13,5 km/h (3 Bft)
16.01.2016 19:45 -3,4 C -4,3 C 82 % 1017,3 hPa 0,0 mm 9,1 km/h (2 Bft) S 180 -6,0 C 19,2 km/h (3 Bft)
16.01.2016 19:50 -3,5 C -4,3 C 82 % 1017,3 hPa 0,0 mm 9,8 km/h (2 Bft) W 270 -6,1 C 11,7 km/h (2 Bft)
16.01.2016 19:55 -3,5 C -4,4 C 82 % 1017,3 hPa 0,0 mm 10,1 km/h (2 Bft) W-NW 292 -6,1 C 21,5 km/h (4 Bft)
16.01.2016 20:00 -3,4 C -4,3 C 82 % 1017,4 hPa 0,0 mm 9,6 km/h (2 Bft) W-SW 247 -6,0 C 17,1 km/h (3 Bft)
16.01.2016 20:05 -3,4 C -4,2 C 82 % 1017,4 hPa 0,0 mm 9,3 km/h (2 Bft) W 270 -6,0 C 17,9 km/h (3 Bft)
16.01.2016 20:10 -3,4 C -4,3 C 82 % 1017,4 hPa 0,0 mm 9,8 km/h (2 Bft) W-SW 247 -6,0 C 17,9 km/h (3 Bft)
16.01.2016 20:15 -3,2 C -4,3 C 82 % 1017,4 hPa 0,0 mm 11,1 km/h (2 Bft) W 270 -5,8 C 15,3 km/h (3 Bft)
16.01.2016 20:20 -3,2 C -4,4 C 85 % 1017,2 hPa 0,0 mm 11,7 km/h (2 Bft) W 270 -5,4 C 8,3 km/h (2 Bft)
16.01.2016 20:25 -3,4 C -4,3 C 82 % 1017,2 hPa 0,0 mm 10,6 km/h (2 Bft) W 270 -6,0 C 6,0 km/h (2 Bft)
16.01.2016 20:30 -3,2 C -4,2 C 84 % 1017,2 hPa 0,0 mm 9,6 km/h (2 Bft) W-SW 247 -5,5 C 8,0 km/h (2 Bft)
16.01.2016 20:35 -3,2 C -4,3 C 82 % 1017,2 hPa 0,0 mm 11,1 km/h (2 Bft) W 270 -5,8 C 11,1 km/h (2 Bft)
16.01.2016 20:40 -3,2 C -4,2 C 82 % 1017,4 hPa 0,0 mm 10,4 km/h (2 Bft) W 270 -5,8 C 11,7 km/h (2 Bft)
16.01.2016 20:45 -3,2 C -4,0 C 82 % 1017,4 hPa 0,0 mm 9,8 km/h (2 Bft) NW 315 -5,8 C 15,8 km/h (3 Bft)
16.01.2016 20:50 -3,1 C -4,2 C 82 % 1017,4 hPa 0,0 mm 11,4 km/h (2 Bft) W-SW 247 -5,7 C 12,7 km/h (3 Bft)
16.01.2016 20:55 -3,1 C -3,8 C 82 % 1017,4 hPa 0,0 mm 12,7 km/h (3 Bft) W 270 -5,7 C 11,4 km/h (2 Bft)
16.01.2016 21:00 -3,1 C -4,2 C 83 % 1017,2 hPa 0,0 mm 11,4 km/h (2 Bft) W-NW 292 -5,6 C 13,2 km/h (3 Bft)
16.01.2016 21:05 -3,1 C -4,0 C 82 % 1017,2 hPa 0,0 mm 9,8 km/h (2 Bft) W-SW 247 -5,7 C 12,4 km/h (3 Bft)
16.01.2016 21:10 -3,1 C -4,0 C 81 % 1017,2 hPa 0,0 mm 9,8 km/h (2 Bft) NW 315 -5,9 C 9,8 km/h (2 Bft)
16.01.2016 21:15 -3,2 C -4,3 C 83 % 1017,2 hPa 0,0 mm 10,9 km/h (2 Bft) W 270 -5,7 C 15,5 km/h (3 Bft)
16.01.2016 21:20 -3,2 C -4,3 C 84 % 1017,4 hPa 0,0 mm 10,6 km/h (2 Bft) W-SW 247 -5,5 C 15,5 km/h (3 Bft)
16.01.2016 21:25 -3,4 C -4,5 C 84 % 1017,4 hPa 0,0 mm 11,4 km/h (2 Bft) W 270 -5,7 C 10,4 km/h (2 Bft)
16.01.2016 21:30 -3,4 C -4,5 C 85 % 1017,4 hPa 0,0 mm 11,1 km/h (2 Bft) NW 315 -5,5 C 12,4 km/h (3 Bft)
16.01.2016 21:35 -3,4 C -4,2 C 82 % 1017,4 hPa 0,0 mm 9,1 km/h (2 Bft) W-SW 247 -6,0 C 10,1 km/h (2 Bft)
16.01.2016 21:40 -3,4 C -4,2 C 82 % 1017,3 hPa 0,0 mm 9,1 km/h (2 Bft) W 270 -6,0 C 6,5 km/h (2 Bft)
16.01.2016 21:45 -3,2 C -4,2 C 86 % 1017,3 hPa 0,0 mm 8,8 km/h (2 Bft) W-SW 247 -5,2 C 11,7 km/h (2 Bft)
16.01.2016 21:50 -3,2 C -4,1 C 85 % 1017,3 hPa 0,0 mm 8,0 km/h (2 Bft) W-SW 247 -5,4 C 9,1 km/h (2 Bft)
16.01.2016 21:55 -3,2 C -4,2 C 85 % 1017,3 hPa 0,0 mm 9,3 km/h (2 Bft) W-SW 247 -5,4 C 9,8 km/h (2 Bft)
16.01.2016 22:00 -3,2 C -4,3 C 85 % 1017,1 hPa 0,0 mm 11,1 km/h (2 Bft) W-NW 292 -5,4 C 21,5 km/h (4 Bft)
16.01.2016 22:05 -3,4 C -4,3 C 82 % 1017,1 hPa 0,0 mm 11,1 km/h (2 Bft) W-SW 247 -6,0 C 11,1 km/h (2 Bft)
16.01.2016 22:10 -3,4 C -4,4 C 82 % 1017,1 hPa 0,0 mm 10,9 km/h (2 Bft) W-SW 247 -6,0 C 10,1 km/h (2 Bft)
16.01.2016 22:15 -3,4 C -4,4 C 82 % 1017,1 hPa 0,0 mm 11,1 km/h (2 Bft) W-SW 247 -6,0 C 16,6 km/h (3 Bft)
16.01.2016 22:20 -3,4 C -4,5 C 82 % 1017,2 hPa 0,0 mm 11,9 km/h (2 Bft) SW 225 -6,0 C 13,2 km/h (3 Bft)
16.01.2016 22:25 -3,5 C -4,6 C 82 % 1017,2 hPa 0,0 mm 12,2 km/h (2 Bft) NW 315 -6,1 C 11,9 km/h (2 Bft)
16.01.2016 22:30 -3,5 C -4,3 C 82 % 1017,2 hPa 0,0 mm 12,7 km/h (3 Bft) W-SW 247 -6,1 C 18,4 km/h (3 Bft)
16.01.2016 22:35 -3,6 C -4,8 C 85 % 1017,2 hPa 0,0 mm 12,2 km/h (2 Bft) W-SW 247 -5,7 C 15,8 km/h (3 Bft)
16.01.2016 22:40 -3,6 C -4,7 C 85 % 1017,0 hPa 0,0 mm 10,6 km/h (2 Bft) W-SW 247 -5,7 C 16,3 km/h (3 Bft)
16.01.2016 22:45 -3,7 C -4,8 C 82 % 1017,0 hPa 0,0 mm 11,1 km/h (2 Bft) W-SW 247 -6,3 C 9,8 km/h (2 Bft)
16.01.2016 22:50 -3,7 C -5,0 C 86 % 1017,0 hPa 0,0 mm 12,2 km/h (2 Bft) SW 225 -5,7 C 9,6 km/h (2 Bft)
16.01.2016 22:55 -3,7 C -4,8 C 82 % 1017,0 hPa 0,0 mm 10,4 km/h (2 Bft) W 270 -6,3 C 13,5 km/h (3 Bft)
16.01.2016 23:00 -3,7 C -4,7 C 82 % 1016,7 hPa 0,0 mm 9,8 km/h (2 Bft) W-NW 292 -6,3 C 10,9 km/h (2 Bft)
16.01.2016 23:05 -3,7 C -4,7 C 82 % 1016,7 hPa 0,0 mm 11,1 km/h (2 Bft) W-NW 292 -6,3 C 25,9 km/h (4 Bft)
16.01.2016 23:10 -3,7 C -4,4 C 83 % 1016,7 hPa 0,0 mm 12,7 km/h (3 Bft) W 270 -6,2 C 19,4 km/h (3 Bft)
16.01.2016 23:15 -3,6 C -4,4 C 83 % 1016,7 hPa 0,0 mm 13,5 km/h (3 Bft) W-NW 292 -6,1 C 20,7 km/h (4 Bft)
16.01.2016 23:20 -3,6 C -4,8 C 83 % 1016,8 hPa 0,0 mm 12,2 km/h (2 Bft) W-NW 292 -6,1 C 22,8 km/h (4 Bft)
16.01.2016 23:25 -3,6 C -4,6 C 83 % 1016,8 hPa 0,0 mm 11,1 km/h (2 Bft) W 270 -6,1 C 19,2 km/h (3 Bft)
16.01.2016 23:30 -3,6 C -4,6 C 83 % 1016,8 hPa 0,0 mm 10,4 km/h (2 Bft) W 270 -6,1 C 7,0 km/h (2 Bft)
16.01.2016 23:35 -3,6 C -4,6 C 83 % 1016,8 hPa 0,0 mm 11,4 km/h (2 Bft) W-NW 292 -6,1 C 18,6 km/h (3 Bft)
16.01.2016 23:40 -3,6 C -4,6 C 83 % 1017,1 hPa 0,0 mm 11,7 km/h (2 Bft) W-NW 292 -6,1 C 18,1 km/h (3 Bft)
16.01.2016 23:42 -3,6 C -4,4 C 83 % 1017,1 hPa 0,0 mm 13,7 km/h (3 Bft) W-NW 292 -6,1 C 15,5 km/h (3 Bft)
16.01.2016 23:45 -3,6 C -4,8 C 83 % 1017,1 hPa 0,0 mm 13,7 km/h (3 Bft) W-NW 292 -6,1 C 15,5 km/h (3 Bft)
16.01.2016 23:50 -3,6 C -4,5 C 83 % 1017,1 hPa 0,0 mm 15,5 km/h (3 Bft) W 270 -6,1 C 17,6 km/h (3 Bft)
16.01.2016 23:55 -3,7 C -4,6 C 83 % 1017,1 hPa 0,0 mm 18,1 km/h (3 Bft) NW 315 -6,2 C 21,0 km/h (4 Bft)
_ Min-Zeit 23:55 22:50 17:15 00:35 - 07:45 - - 17:15 17:25
Minimum _ -3,7 C -5,0 C 78 % 1012,2 hPa - 0,0 km/h (0 Bft) - - -6,9 C 0,0 km/h (0 Bft)
_ Max-Zeit 13:40 13:45 02:25 15:15 23:55 23:55 - - 08:00 00:25
Maximum _ -2,4 C -1,1 C 87 % 1018,4 hPa 0,0 mm 18,1 km/h
NW (3 Bft)
- - -5,0 C 38,8 km/h
S-SW (5 Bft)
Durchschnitt _ -3,1 C -3,5 C 82 % 1016,3 hPa #0,0 mm 7,3 km/h (2 Bft) W-SW - -5,8 C 9,4 km/h (2 Bft)